Weather past 2 weeks in Cayenne, French Guiana

Now
79 °F

Partly cloudy.


Feels Like: 82 °F
Forecast: 76 / 85 °F
Wind: 8 mph from Northeast

Location: Cayenne / Rochambeau

Current Time: Feb 26, 2015 at 10:15:13 PM

Latest Report: Feb 26, 2015 at 10:00 PM


Visibility: N/A

Pressure: 29.89 "Hg

Humidity: 84%

Dew point: 73 °F

Location of CayenneLocation

Historic Weather in Cayenne — Graph

°F

Cayenne temperature yesterday

Maximum temperature yesterday: 79 °F (at 3:00 PM)
Minimum temperature yesterday: 75 °F (at 12:00 AM)
Average temperature yesterday: 76 °F

Past Weeks' High & Low Weather Summary

 TemperatureHumidityPressure
High86 °F (Feb 12, 1:30 PM)100% (Feb 12, 12:00 AM)30.01 "Hg (Feb 12, 12:00 AM)
Low72 °F (Feb 19, 4:30 AM)59% (Feb 19, 4:00 PM)29.80 "Hg (Feb 19, 4:00 PM)
Average79 °F86%29.90 "Hg
* Reported Feb 11 9:00 PM — Feb 26 9:00 PM, Cayenne, Weather by CustomWeather, © 2015

Note: Actual official high and low records may vary slightly from our data, if they occured in-between our weather recording intervals... More about our weather records

Advertising

Cayenne weather history for previous 24 hours

 ConditionsComfort  
Time TempWeatherWind HumidityBarometerVisibility
9:00 PM
Thu, Feb 26
79 °FPassing clouds.7 mph84%29.86 "HgN/A
8:30 PM79 °FMostly cloudy.3 mph84%29.86 "HgN/A
8:00 PM79 °FPartly cloudy.7 mph84%29.86 "HgN/A
7:30 PM79 °FPartly cloudy.7 mph84%29.86 "HgN/A
7:00 PM79 °FOvercast.9 mph89%29.83 "HgN/A
6:00 PM81 °FPartly sunny.9 mph84%29.83 "HgN/A
5:30 PM81 °FPartly sunny.8 mph84%29.83 "HgN/A
5:00 PM79 °FBroken clouds.6 mph89%29.83 "HgN/A
4:30 PM77 °FLight rain. Broken clouds.14 mph89%29.83 "Hg4 mi
4:00 PM84 °FPartly sunny.15 mph70%29.83 "HgN/A
3:30 PM84 °FMostly cloudy.14 mph70%29.83 "HgN/A
3:00 PM86 °FBroken clouds.15 mph66%29.86 "HgN/A
2:30 PM86 °FPartly sunny.17 mph66%29.86 "HgN/A
2:00 PM84 °FBroken clouds.17 mph70%29.86 "HgN/A
1:30 PM86 °FPartly sunny.18 mph66%29.89 "HgN/A
1:00 PM86 °FPartly sunny.17 mph66%29.89 "HgN/A
12:30 PM86 °FPartly sunny.18 mph66%29.92 "HgN/A
12:00 PM84 °FPartly sunny.18 mph70%29.92 "HgN/A
11:30 AM86 °FPartly sunny.20 mph70%29.92 "HgN/A
11:00 AM86 °FBroken clouds.17 mph70%29.95 "HgN/A
10:30 AM84 °FPartly sunny.20 mph74%29.95 "HgN/A
10:00 AM84 °FPartly sunny.18 mph74%29.95 "HgN/A
9:30 AM82 °FMostly cloudy.17 mph79%29.95 "HgN/A
9:00 AM82 °FPartly sunny.16 mph79%29.92 "HgN/A
8:30 AM82 °FBroken clouds.13 mph79%29.92 "HgN/A
8:00 AM81 °FBroken clouds.15 mph84%29.89 "HgN/A
7:30 AM79 °FMostly cloudy.10 mph84%29.89 "HgN/A
7:00 AM79 °FMostly cloudy.10 mph89%29.89 "HgN/A
6:30 AM79 °FPassing clouds.13 mph89%29.86 "HgN/A
6:00 AM79 °FPartly cloudy.10 mph89%29.86 "HgN/A
5:30 AM77 °FMostly cloudy.7 mph94%29.86 "HgN/A
5:00 AM77 °FPartly cloudy.10 mph94%29.86 "HgN/A
4:30 AM79 °FPartly cloudy.9 mph84%29.86 "HgN/A
4:00 AM79 °FLight rain. Passing clouds.8 mph84%29.86 "HgN/A
3:00 AM77 °FPassing clouds.5 mph89%29.89 "HgN/A
2:30 AM77 °FPassing clouds.9 mph94%29.89 "HgN/A
2:00 AM77 °FPartly cloudy.5 mph94%29.89 "HgN/A
12:00 AM77 °FLight rain. Fog.12 mph94%29.92 "Hg2 mi
11:30 PM
Wed, Feb 25
77 °FLight rain. Mostly cloudy.1 mph94%29.92 "HgN/A
11:00 PM77 °FMostly cloudy.No wind89%29.92 "HgN/A
10:30 PM77 °FPassing clouds.3 mph89%29.92 "HgN/A
10:00 PM77 °FPassing clouds.10 mph89%29.92 "HgN/A
Weather by CustomWeather, © 2015

See weather overviewHow to use our weather pages